Location: *
(55.6049°S, 142.1985°W)
Time: 02:46:08
(UTC+00:00)

H-2A R/B - Pass Details

Date: 12 May 2021
Orbit: 528 x 651 km, 98.3° (Epoch: 23 June)

Event Time Altitude Azimuth Distance (km) Brightness Sun altitude
Rises 14:51:16 0° 23° (NNE) 2,888 6.4 -19.8°
Reaches altitude 10° 14:53:29 10° 24° (NNE) 1,971 5.5 -19.4°
Maximum altitude 14:57:45 75° 108° (ESE) 627 2.6 -18.8°
Drops below altitude 10° 15:01:55 10° 193° (SSW) 1,921 4.9 -18.3°
Enters shadow 15:02:38 - 194° (SSW) 2,217 5.2 -18.2°
